Location: Yucca Valley
(34.1140°N, 116.4310°W)
Time: 16:53:42
(UTC-07:00)

Daily predictions for brighter satellites

Satellite Brightness Start Highest point End
(mag) Time Altitude Azimuth Time Altitude Azimuth Time Altitude Azimuth
Atlas Centaur 2 3.7 18:45:28 10° W 18:53:43 55° SSW 19:01:44 10° ESE
SL-16 R/B 2.4 18:49:59 10° SSW 18:55:40 82° WNW 19:01:23 10° NNE
COSMOS 2441 4.4 18:51:13 10° SSE 18:56:03 76° ENE 19:00:54 10° N
Helios 1B rocket 3.7 18:53:30 10° NE 18:56:40 21° E 18:59:49 10° SSE
TIMED 4.5 18:55:59 10° NNW 19:00:21 76° ENE 19:04:42 10° SSE
SAR-Lupe-4 3.9 18:58:03 10° SE 19:01:25 42° ENE 19:04:49 10° N
CENTAUR R/B 3.6 18:57:46 10° SSE 19:01:59 20° ESE 19:06:28 10° ENE
OAO 3 Rocket 3.2 18:58:15 10° W 19:03:00 80° N 19:07:49 10° E
Cosmos 1378 3.3 18:59:23 10° N 19:03:00 48° E 19:06:36 10° SSE
Cosmos 1076 Rocket 4.0 19:01:44 10° NNE 19:05:47 37° E 19:09:49 10° SSE
Spot 2 Rocket 4.3 19:02:32 10° SE 19:06:49 29° ENE 19:11:06 10° N
NOSS 3-2 (C) 3.7 19:03:19 10° SW 19:09:18 78° WNW 19:15:48 10° NNE
Cosmos-2242 3.7 19:05:35 10° SSE 19:09:27 32° E 19:13:22 10° NNE
Cosmos 192 4.5 19:08:05 10° SSW 19:13:01 82° WNW 19:18:00 10° NNE
ISS -2.9 19:10:48 10° SSW 19:13:53 41° SE 19:16:49 11° ENE
Meteor 1-28 Rocket 3.1 19:10:39 10° NNE 19:14:21 68° E 19:18:01 10° S
Cosmos 1805 3.6 19:11:29 10° SSE 19:15:10 41° E 19:18:53 10° NNE
ATLAS CENTAUR R/B 2.4 19:11:28 10° NW 19:15:23 45° WSW 19:18:59 10° S
Cosmos 1953 2.6 19:13:09 10° SSE 19:16:57 44° E 19:20:44 10° NNE
Cosmos 2056 Rocket 3.8 19:12:23 10° NNW 19:17:49 76° WSW 19:23:11 10° S
Cosmos 2034 Rocket 4.1 19:13:44 10° S 19:19:49 58° E 19:26:00 10° NNE
HJ-1C 4.2 19:17:40 10° SE 19:20:38 30° ENE 19:23:36 10° NNE
Cosmos 1464 Rocket 4.0 19:14:39 10° S 19:20:54 82° E 19:27:07 10° N
Gbstr 26 Del rocket 3.7 19:17:34 10° SSW 19:21:23 35° SE 19:25:35 11° ENE
Cosmos 2278 Rocket 4.0 19:18:21 10° NW 19:23:26 35° WSW 19:28:29 10° SSW
ALOS 3.5 19:20:49 13° ESE 19:23:46 22° ENE 19:27:19 10° NNE
Cosmos 1842 Rocket 4.5 19:26:02 10° SE 19:29:33 25° E 19:33:06 10° NE
GPS 2-04 Rocket1 2.4 19:27:18 10° WSW 19:30:44 64° SSE 19:32:46 23° E
Cosmos 2297 4.1 19:25:25 10° NNW 19:31:02 68° WSW 19:36:36 10° S
ATLAS CENTAUR R/B 3.9 19:27:09 10° WSW 19:31:35 60° NW 19:45:08 10° NE
Cosmos 1408 Rocket 3.4 19:28:53 10° N 19:33:13 71° E 19:37:29 10° SSE
Cosmos 1943 3.8 19:33:08 10° SSE 19:38:04 32° ESE 19:43:00 10° NE
Cosmos 1470 3.5 19:35:24 10° SSE 19:38:46 29° E 19:42:08 10° NNE
Cosmos 2369 Rocket 3.6 19:36:45 10° NNE 19:40:42 19° ENE 19:41:35 18° ENE
Cosmos 1603 3.7 19:37:26 10° SSW 19:43:10 89° WNW 19:48:56 10° NNE
FREGAT/IRIS 3.1 19:41:12 10° S 19:44:15 63° W 19:47:20 10° NNW
NOAA 12 4.3 19:40:53 10° S 19:46:06 72° WSW 19:51:23 10° NNW
SL-8 R/B 4.0 19:41:32 10° WSW 19:46:16 65° NW 19:50:17 14° NE
SJ-6B 3.7 19:42:52 10° S 19:46:44 53° W 19:50:41 10° NNW
CZ-4B DEB 4.1 19:47:42 24° NE 19:47:42 24° NE 19:49:38 10° NNE
USA 215 3.4 19:40:48 10° NE 19:47:21 80° NW 19:53:51 10° SW
Meteor 1-29 2.8 19:46:14 10° NNE 19:49:45 84° E 19:53:14 10° S
OAO 1 Rocket 4.5 19:44:50 10° W 19:50:14 80° N 19:53:01 29° E
Helios 1A 2.9 19:47:40 10° SSE 19:51:50 73° ENE 19:56:03 10° N
Resurs 1-3 3.5 19:47:34 10° SSE 19:51:53 63° ENE 19:56:14 10° N
BREEZE-M DEB (TANK) 3.7 19:51:14 10° WNW 19:53:47 36° SW 20:00:04 10° SSE
BREEZE-M DEB (TANK) 4.4 19:32:24 10° NW 19:54:12 85° SW 19:57:58 23° SE
Resurs 01 Rocket 1.6 19:50:56 10° SSE 19:55:23 89° WSW 19:59:51 10° NNW
SeaSat 1 3.0 19:55:12 32° E 19:55:39 33° ESE 20:00:03 10° S
Cosmos 1674 3.3 19:53:14 10° N 19:56:23 36° ENE 19:56:23 36° ENE
Cosmos 1758 4.5 19:56:11 10° SSW 20:00:05 46° W 20:04:03 10° N
Abrixas 4.3 19:57:31 10° W 20:00:10 28° NNW 20:01:22 21° N
ASTRO E2 3.2 19:57:58 10° W 20:01:52 47° S 20:02:43 40° SSE
Cosmos 1743 Rocket 3.4 19:58:05 10° N 20:02:31 69° E 20:05:08 23° SSE
Cosmos 1346 3.4 20:04:20 10° N 20:06:48 57° NNW 20:06:48 57° NNW
FengYun 1-2 T 4.2 20:04:46 10° SSE 20:10:18 87° WSW 20:15:49 10° NNW
SEDSat Delta rocket 4.1 20:06:59 10° W 20:13:38 68° S 20:16:07 40° ESE
Cosmos 1452 Rocket 4.2 20:09:06 10° NNW 20:14:13 54° WSW 20:19:18 10° S
ATLAS 5 CENTAUR R/B 4.3 20:15:29 10° W 20:19:05 21° NW 20:22:54 10° N
GP-B 4.3 20:20:54 10° N 20:23:17 30° NNE 20:23:17 30° NNE
Nadezhda 4 Rocket 4.3 20:25:21 10° NNW 20:31:33 65° W 20:37:38 10° S
ASTEX 1 3.7 20:27:35 10° N 20:32:25 63° W 20:37:14 10° SSW
CZ-2D R/B 4.2 20:35:31 46° NNW 20:35:31 46° NNW 20:38:23 10° NNW
Cosmos 1420 Rocket 4.3 20:30:01 10° NNW 20:35:17 65° WSW 20:37:15 38° S
Cosmos 1092 Rocket 4.0 20:33:29 10° N 20:39:42 78° W 20:43:14 27° S
Cosmos 839 Rocket 4.3 20:33:38 10° NNW 20:40:48 53° ENE 20:40:52 53° ENE
Cosmos 2142 Rocket 4.5 20:35:49 10° S 20:42:10 86° W 20:48:36 10° N
Cosmos 1655 Rocket 4.5 20:36:19 10° N 20:40:56 44° NE 20:40:56 44° NE
Atlas Centaur 2 4.3 20:36:05 10° W 20:42:57 27° SSW 20:46:05 21° S
OAO 3 Rocket 3.6 20:41:49 10° W 20:45:42 58° W 20:45:42 58° W
H-2A R/B 4.4 20:49:41 33° NW 20:49:41 33° NW 20:52:09 10° NNW
ISS -0.3 20:48:12 10° WNW 20:49:32 16° NW 20:49:32 16° NW
Cosmos 1634 Rocket 4.2 20:44:38 10° SSW 20:50:51 68° W 20:57:03 10° N
CENTAUR R/B 3.1 20:46:06 10° SW 20:51:55 54° NW 20:58:28 10° NNE
Cosmos 2026 Rocket 4.1 20:46:48 10° N 20:51:47 59° NNE 20:51:47 59° NNE
ALOS 3.9 20:59:22 24° SW 21:01:00 30° W 21:05:07 10° NW
Cosmos 1943 Rocket 4.0 21:19:10 10° NNW 21:21:10 22° N 21:21:10 22° N
Cosmos 2369 Rocket 3.3 21:19:31 10° NNW 21:23:24 40° WNW 21:23:24 40° WNW
